Location: La Tine
(46.4708°N, 7.0525°E)
Time: 10:33:07
(UTC+00:00)

Meteor 1-24 Rocket - Visible Passes

Search period start: 17 January 2021 00:00
Search period end: 27 January 2021 00:00
Orbit: 789 x 928 km, 81.3° (Epoch: 16 January)

Date Brightness Start Highest point End Pass type
(mag) Time Alt. Az. Time Alt. Az. Time Alt. Az.
17 Jan 5.8 03:18:28 21° NE 03:19:26 22° ENE 03:23:37 10° ESE visible
17 Jan 3.6 05:00:43 34° NW 05:02:55 57° W 05:08:20 10° S visible
17 Jan 4.3 18:11:13 10° SSW 18:16:29 53° WNW 18:21:41 10° N visible
18 Jan 5.8 03:10:06 21° ENE 03:10:06 21° ENE 03:13:57 10° ESE visible
18 Jan 3.6 04:52:22 51° NW 04:53:19 59° W 04:58:47 10° S visible
18 Jan 4.3 18:01:36 10° SSW 18:06:52 55° WNW 18:12:05 10° N visible
19 Jan 6.0 03:01:49 18° E 03:01:49 18° E 03:04:16 10° ESE visible
19 Jan 3.6 04:44:05 60° WSW 04:44:05 60° WSW 04:49:14 10° S visible
19 Jan 4.2 17:51:59 10° SSW 17:57:15 57° WNW 18:02:30 10° N visible
20 Jan 6.3 02:53:35 14° ESE 02:53:35 14° ESE 02:54:35 10° ESE visible
20 Jan 4.2 04:35:52 42° SSW 04:35:52 42° SSW 04:39:40 10° S visible
20 Jan 4.2 17:42:22 10° SSW 17:47:39 59° WNW 17:52:54 10° N visible
21 Jan 5.0 04:27:40 26° S 04:27:40 26° S 04:30:07 10° S visible
21 Jan 4.1 17:32:45 10° SSW 17:38:02 61° WNW 17:43:18 10° N visible
22 Jan 5.7 04:19:28 16° S 04:19:28 16° S 04:20:33 10° S visible
22 Jan 4.1 17:23:08 10° SSW 17:28:25 63° WNW 17:33:42 10° N visible
23 Jan 4.0 17:13:31 10° SSW 17:18:48 66° WNW 17:24:06 10° N visible
24 Jan 4.0 17:03:55 10° SSW 17:09:12 68° WNW 17:14:30 10° N visible
24 Jan 6.6 18:52:42 10° WNW 18:53:25 10° NW 18:54:07 10° NW visible
25 Jan 3.9 16:54:18 10° SSW 16:59:35 71° WNW 17:04:54 10° N visible
25 Jan 6.5 18:42:37 10° WNW 18:43:46 11° WNW 18:44:55 10° NW visible
26 Jan 6.5 18:32:39 10° WNW 18:34:07 11° WNW 18:35:36 10° NW visible
